CES5352 ZGSZ-ZSPD

Flight info

Callsign CES5352
Flight time N/A
Altitude 35100
Route IDUMA2 IDUMA W41 ISLOM G471 XEBUL DCT ODOPI DCT AKAVO DCT UPNUG W76 AREPI B221 SHZ W58 XSY
Aircraft B77W/H-SDE1E2E3FGHIJ2J3J4J5M1RWXY/LB1D1

Departure

Time 2026-05-04 11:56
Airport Shenzhen Bao'an International Airport (ZGSZ)

Arrival

Time N/A
Airport Shanghai Pudong International Airport (ZSPD)
Time Latitude Longitude Altitude Speed Heading
2026-05-04 11:35 22.63392 113.80898 28 ft 0 kts 307°
2026-05-04 11:47 22.63383 113.80911 28 ft 2 kts 308°
2026-05-04 11:47 22.63374 113.80924 28 ft 2 kts 307°
2026-05-04 11:47 22.63365 113.80936 28 ft 2 kts 309°
2026-05-04 11:47 22.63354 113.80946 28 ft 2 kts 334°
2026-05-04 11:48 22.63340 113.80951 28 ft 2 kts 356°
2026-05-04 11:48 22.63325 113.80950 28 ft 2 kts 17°
2026-05-04 11:48 22.63312 113.80943 28 ft 2 kts 39°
2026-05-04 11:48 22.63302 113.80932 28 ft 1 kts 59°
2026-05-04 11:49 22.63299 113.80926 28 ft 0 kts 64°
2026-05-04 11:49 22.63298 113.80926 28 ft 0 kts 64°
2026-05-04 11:51 22.63301 113.80930 28 ft 1 kts 64°
2026-05-04 11:51 22.63308 113.80946 28 ft 2 kts 63°
2026-05-04 11:51 22.63316 113.80963 28 ft 2 kts 63°
2026-05-04 11:51 22.63329 113.80991 28 ft 5 kts 63°
2026-05-04 11:52 22.63355 113.81044 28 ft 9 kts 63°
2026-05-04 11:52 22.63379 113.81122 28 ft 12 kts 103°
2026-05-04 11:52 22.63305 113.81184 28 ft 15 kts 153°
2026-05-04 11:52 22.63201 113.81241 28 ft 17 kts 153°
2026-05-04 11:53 22.63083 113.81307 28 ft 20 kts 153°
2026-05-04 11:53 22.62950 113.81382 28 ft 22 kts 152°
2026-05-04 11:53 22.62803 113.81464 28 ft 24 kts 153°
2026-05-04 11:53 22.62643 113.81552 28 ft 26 kts 149°
2026-05-04 11:55 22.62960 113.81599 28 ft 68 kts 333°
2026-05-04 11:55 22.63626 113.81230 28 ft 142 kts 333°
2026-05-04 11:56 22.64635 113.80666 380 ft 171 kts 334°
2026-05-04 11:56 22.65730 113.80100 1140 ft 182 kts 343°
2026-05-04 11:56 22.66912 113.79541 1774 ft 193 kts 336°
2026-05-04 11:56 22.68158 113.78852 2287 ft 210 kts 335°
2026-05-04 11:57 22.69502 113.78104 2843 ft 227 kts 334°
2026-05-04 11:57 22.70949 113.77297 3449 ft 242 kts 334°
2026-05-04 11:57 22.72585 113.76619 4109 ft 256 kts 352°
2026-05-04 11:57 22.74385 113.76771 4724 ft 271 kts 20°
2026-05-04 11:58 22.75962 113.77909 5523 ft 279 kts 49°
2026-05-04 11:58 22.76880 113.79766 6274 ft 288 kts 72°
2026-05-04 11:58 22.77667 113.81760 7095 ft 292 kts 56°
2026-05-04 11:58 22.78929 113.83510 7956 ft 297 kts 46°
2026-05-04 11:59 22.80355 113.85136 8725 ft 304 kts 43°
2026-05-04 11:59 22.81862 113.86775 9554 ft 309 kts 42°
2026-05-04 11:59 22.83411 113.88451 10327 ft 317 kts 42°
2026-05-04 11:59 22.85002 113.90171 10813 ft 335 kts 42°
2026-05-04 12:00 22.86713 113.92025 11360 ft 352 kts 42°
2026-05-04 12:00 22.88589 113.93806 11856 ft 367 kts 31°
2026-05-04 12:00 22.90891 113.95140 12386 ft 378 kts 17°
2026-05-04 12:00 22.93463 113.95878 12899 ft 390 kts
2026-05-04 12:01 22.96204 113.96355 13501 ft 404 kts
2026-05-04 12:01 22.98998 113.96826 14401 ft 408 kts
2026-05-04 12:02 23.16362 113.99820 19571 ft 436 kts
2026-05-04 12:03 23.19377 114.00345 20352 ft 441 kts
2026-05-04 12:03 23.22411 114.00874 21142 ft 445 kts
2026-05-04 12:03 23.25496 114.01469 21892 ft 452 kts
2026-05-04 12:03 23.28551 114.02535 22548 ft 465 kts 18°
2026-05-04 12:04 23.31473 114.04165 23175 ft 478 kts 27°
2026-05-04 12:04 23.34215 114.06314 23745 ft 490 kts 34°
2026-05-04 12:04 23.36925 114.08652 24345 ft 498 kts 34°
2026-05-04 12:04 23.39673 114.11030 24974 ft 504 kts 34°
2026-05-04 12:05 23.42408 114.13390 25588 ft 510 kts 34°
2026-05-04 12:05 23.45204 114.15797 26155 ft 518 kts 34°
2026-05-04 12:05 23.48088 114.18276 26712 ft 525 kts 34°
2026-05-04 12:05 23.50962 114.20744 27326 ft 531 kts 34°
2026-05-04 12:06 23.53892 114.23260 27879 ft 538 kts 34°
2026-05-04 12:06 23.56863 114.25810 28428 ft 544 kts 34°
2026-05-04 12:06 23.59829 114.28356 29047 ft 549 kts 34°
2026-05-04 12:06 23.62867 114.30965 29780 ft 551 kts 34°
2026-05-04 12:07 23.65867 114.33537 30598 ft 550 kts 33°
2026-05-04 12:07 23.68915 114.36054 31522 ft 545 kts 32°
2026-05-04 12:07 23.71927 114.38518 32533 ft 538 kts 31°
2026-05-04 12:07 23.74888 114.40941 33487 ft 532 kts 31°
2026-05-04 12:08 23.77882 114.43392 34397 ft 527 kts 31°
2026-05-04 12:08 23.80781 114.45769 35079 ft 527 kts 31°
2026-05-04 12:08 23.83728 114.48183 35192 ft 528 kts 31°
2026-05-04 12:08 23.86645 114.50580 35197 ft 524 kts 31°
2026-05-04 12:09 23.92485 114.55381 35201 ft 525 kts 31°
2026-05-04 12:09 23.98383 114.60238 35203 ft 526 kts 31°
2026-05-04 12:10 24.04194 114.65029 35205 ft 526 kts 31°
2026-05-04 12:10 24.10086 114.69894 35186 ft 527 kts 31°
2026-05-04 12:11 24.15949 114.74741 35184 ft 529 kts 31°
2026-05-04 12:11 24.21774 114.79564 35189 ft 527 kts 31°
2026-05-04 12:12 24.27582 114.84581 35190 ft 534 kts 38°
2026-05-04 12:12 24.32401 114.90777 35202 ft 541 kts 48°
2026-05-04 12:14 24.50875 115.17167 35194 ft 547 kts 48°
2026-05-04 12:15 24.55500 115.23795 35194 ft 546 kts 48°
2026-05-04 12:15 24.60140 115.30454 35196 ft 547 kts 48°
2026-05-04 12:16 24.64746 115.37072 35203 ft 546 kts 48°
2026-05-04 12:16 24.69319 115.43740 35211 ft 547 kts 50°
2026-05-04 12:17 24.73740 115.50564 35211 ft 549 kts 51°
2026-05-04 12:17 24.78155 115.57388 35221 ft 549 kts 50°
2026-05-04 12:18 24.82582 115.64226 35227 ft 549 kts 50°
2026-05-04 12:18 24.87017 115.71079 35209 ft 550 kts 51°
2026-05-04 12:19 24.91460 115.77951 35212 ft 551 kts 51°
2026-05-04 12:19 24.95902 115.84830 35213 ft 551 kts 51°
2026-05-04 12:20 25.00339 115.91707 35212 ft 553 kts 51°
2026-05-04 12:20 25.04771 115.98586 35219 ft 553 kts 51°
2026-05-04 12:21 25.09225 116.05512 35222 ft 551 kts 51°
2026-05-04 12:21 25.13678 116.12441 35225 ft 553 kts 51°
2026-05-04 12:22 25.18097 116.19331 35228 ft 555 kts 51°
2026-05-04 12:22 25.22547 116.26278 35228 ft 553 kts 51°
2026-05-04 12:23 25.27004 116.33245 35227 ft 555 kts 51°
2026-05-04 12:23 25.31421 116.40161 35235 ft 555 kts 51°
2026-05-04 12:24 25.35882 116.47156 35242 ft 555 kts 50°
2026-05-04 12:24 25.40303 116.54097 35246 ft 555 kts 50°
2026-05-04 12:25 25.44747 116.61086 35246 ft 556 kts 51°
2026-05-04 12:25 25.49203 116.68104 35225 ft 556 kts 51°
2026-05-04 12:26 25.53639 116.75100 35223 ft 558 kts 51°
2026-05-04 12:26 25.58116 116.82172 35231 ft 559 kts 51°
2026-05-04 12:27 25.62569 116.89216 35241 ft 559 kts 51°
2026-05-04 12:27 25.67016 116.96262 35244 ft 559 kts 51°
2026-05-04 12:28 25.71465 117.03321 35249 ft 560 kts 51°
2026-05-04 12:28 25.75907 117.10381 35259 ft 561 kts 51°
2026-05-04 12:29 25.80352 117.17456 35261 ft 560 kts 51°
2026-05-04 12:29 25.84802 117.24549 35272 ft 560 kts 51°
2026-05-04 12:30 25.89244 117.31640 35275 ft 562 kts 51°
2026-05-04 12:30 25.93684 117.38740 35274 ft 561 kts 51°
2026-05-04 12:31 25.98134 117.45866 35281 ft 561 kts 51°
2026-05-04 12:31 26.02576 117.52990 35287 ft 562 kts 51°
2026-05-04 12:32 26.09256 117.63724 35278 ft 563 kts 51°
2026-05-04 12:33 26.13709 117.70893 35244 ft 563 kts 52°
2026-05-04 12:33 26.18148 117.78052 35255 ft 563 kts 51°
2026-05-04 12:34 26.22569 117.85191 35257 ft 564 kts 51°
2026-05-04 12:34 26.27021 117.92394 35246 ft 564 kts 52°
2026-05-04 12:35 26.31467 117.99597 35260 ft 565 kts 52°
2026-05-04 12:35 26.35918 118.06819 35256 ft 564 kts 52°
2026-05-04 12:36 26.40340 118.14006 35260 ft 566 kts 52°
2026-05-04 12:36 26.44765 118.21209 35256 ft 565 kts 52°
2026-05-04 12:37 26.49223 118.28477 35262 ft 565 kts 52°
2026-05-04 12:37 26.53646 118.35701 35265 ft 567 kts 52°
2026-05-04 12:38 26.58066 118.42931 35275 ft 568 kts 52°
2026-05-04 12:38 26.62511 118.50213 35274 ft 568 kts 52°
2026-05-04 12:39 26.66958 118.57510 35286 ft 566 kts 52°
2026-05-04 12:39 26.71402 118.64813 35294 ft 571 kts 52°
2026-05-04 12:40 26.75857 118.72149 35278 ft 568 kts 52°
2026-05-04 12:40 26.80287 118.79453 35280 ft 568 kts 52°
2026-05-04 12:41 26.84699 118.86739 35287 ft 569 kts 53°
2026-05-04 12:41 26.89125 118.94061 35282 ft 570 kts 52°
2026-05-04 12:42 26.93582 119.01447 35281 ft 571 kts 52°
2026-05-04 12:42 26.98015 119.08804 35285 ft 573 kts 53°
2026-05-04 12:43 27.02480 119.16228 35295 ft 573 kts 52°
2026-05-04 12:43 27.06917 119.23617 35309 ft 572 kts 52°
2026-05-04 12:44 27.11340 119.30994 35299 ft 573 kts 52°
2026-05-04 12:44 27.15792 119.38434 35312 ft 574 kts 52°
2026-05-04 12:45 27.20237 119.45873 35314 ft 573 kts 52°
2026-05-04 12:45 27.24642 119.53258 35315 ft 575 kts 53°
2026-05-04 12:46 27.28565 119.61126 35321 ft 577 kts 60°
2026-05-04 12:46 27.32260 119.69132 35302 ft 577 kts 60°
2026-05-04 12:47 27.35921 119.77093 35301 ft 578 kts 61°
2026-05-04 12:47 27.39613 119.85141 35303 ft 579 kts 60°
2026-05-04 12:48 27.43302 119.93200 35307 ft 579 kts 61°
2026-05-04 12:48 27.46987 120.01265 35308 ft 582 kts 61°
2026-05-04 12:49 27.50660 120.09323 35306 ft 580 kts 60°
2026-05-04 12:49 27.54346 120.17422 35304 ft 580 kts 61°
2026-05-04 12:50 27.58013 120.25496 35302 ft 582 kts 61°
2026-05-04 12:50 27.62025 120.33378 35302 ft 578 kts 49°
2026-05-04 12:51 27.67490 120.39841 35292 ft 570 kts 31°
2026-05-04 12:51 27.73939 120.44775 35303 ft 557 kts 24°
2026-05-04 12:52 27.80468 120.49481 35291 ft 555 kts 24°
2026-05-04 12:52 27.86976 120.54176 35298 ft 560 kts 25°
2026-05-04 12:53 27.93548 120.58931 35294 ft 557 kts 24°
2026-05-04 12:53 28.00150 120.63424 35290 ft 550 kts 15°
2026-05-04 12:54 28.07374 120.66036 35271 ft 531 kts 359°
2026-05-04 12:54 28.10987 120.66527 35259 ft 516 kts 353°
2026-05-04 12:54 28.14524 120.66853 35257 ft 513 kts 353°
2026-05-04 12:55 28.21656 120.67501 35247 ft 514 kts 353°
2026-05-04 12:55 28.28772 120.68172 35256 ft 512 kts 353°
2026-05-04 12:56 28.35892 120.68856 35259 ft 511 kts 353°
2026-05-04 12:56 28.42961 120.69544 35258 ft 510 kts 353°
2026-05-04 12:57 28.50002 120.70241 35263 ft 510 kts 353°
2026-05-04 12:57 28.57149 120.70956 35263 ft 512 kts 353°
2026-05-04 12:58 28.64199 120.71667 35261 ft 511 kts 353°
2026-05-04 12:58 28.71244 120.72385 35254 ft 508 kts 354°
2026-05-04 12:59 28.78271 120.73158 35254 ft 506 kts 354°
2026-05-04 12:59 28.85298 120.73931 35250 ft 509 kts 354°
2026-05-04 13:00 28.92367 120.74672 35245 ft 507 kts 353°
2026-05-04 13:00 28.99402 120.75395 35239 ft 505 kts 353°
2026-05-04 13:01 29.06431 120.76115 35240 ft 506 kts 353°
2026-05-04 13:01 29.13401 120.76834 35238 ft 506 kts 353°
2026-05-04 13:02 29.20350 120.77552 35234 ft 506 kts 353°
2026-05-04 13:02 29.27347 120.78276 35237 ft 505 kts 353°
2026-05-04 13:03 29.34371 120.79003 35230 ft 505 kts 353°
2026-05-04 13:03 29.41328 120.79726 35219 ft 504 kts 353°
2026-05-04 13:03 29.44807 120.80088 35116 ft 501 kts 353°
2026-05-04 13:04 29.48303 120.80451 34764 ft 503 kts 353°
2026-05-04 13:04 29.51760 120.80992 34312 ft 520 kts
2026-05-04 13:04 29.55337 120.82156 33897 ft 537 kts 11°
2026-05-04 13:04 29.58771 120.83916 33754 ft 553 kts 19°
2026-05-04 13:05 29.62044 120.86275 33686 ft 549 kts 28°
2026-05-04 13:05 29.64969 120.89061 33176 ft 553 kts 37°
2026-05-04 13:05 29.67625 120.92336 32245 ft 567 kts 46°
2026-05-04 13:05 29.69906 120.96056 31257 ft 580 kts 56°
2026-05-04 13:06 29.71896 121.00056 30416 ft 582 kts 57°
2026-05-04 13:06 29.73890 121.04076 29678 ft 569 kts 57°
2026-05-04 13:06 29.75777 121.08026 29029 ft 557 kts 62°
2026-05-04 13:06 29.77191 121.12109 28266 ft 548 kts 72°
2026-05-04 13:07 29.78096 121.16331 27411 ft 540 kts 81°
2026-05-04 13:07 29.78464 121.20523 26585 ft 529 kts 90°
2026-05-04 13:07 29.78309 121.24706 25762 ft 517 kts 100°
2026-05-04 13:07 29.77642 121.28719 24916 ft 504 kts 109°
2026-05-04 13:08 29.76469 121.32410 24101 ft 487 kts 123°
2026-05-04 13:08 29.74604 121.35556 23201 ft 466 kts 140°
2026-05-04 13:08 29.72191 121.37857 22330 ft 443 kts 157°
2026-05-04 13:08 29.69429 121.39210 21379 ft 423 kts 174°
2026-05-04 13:09 29.66607 121.39526 20389 ft 405 kts 191°
2026-05-04 13:09 29.63905 121.38815 19354 ft 389 kts 210°
2026-05-04 13:09 29.61684 121.37204 18337 ft 377 kts 227°
2026-05-04 13:09 29.60052 121.34901 17402 ft 371 kts 240°
2026-05-04 13:10 29.58867 121.32282 16917 ft 365 kts 250°
2026-05-04 13:10 29.58127 121.29520 16837 ft 367 kts 259°
2026-05-04 13:10 29.57807 121.26633 16837 ft 365 kts 268°
2026-05-04 13:10 29.57918 121.23708 16835 ft 364 kts 277°
2026-05-04 13:11 29.58450 121.20892 16836 ft 366 kts 286°
2026-05-04 13:11 29.59402 121.18177 16837 ft 365 kts 295°
2026-05-04 13:11 29.60731 121.15706 16830 ft 366 kts 305°
2026-05-04 13:11 29.62419 121.13508 16828 ft 370 kts 314°
2026-05-04 13:12 29.64446 121.11643 16833 ft 373 kts 323°
2026-05-04 13:12 29.66719 121.10208 16833 ft 377 kts 333°
2026-05-04 13:12 29.69245 121.09225 16831 ft 380 kts 343°
2026-05-04 13:12 29.71844 121.08774 16825 ft 383 kts 353°
2026-05-04 13:13 29.74523 121.08858 16826 ft 388 kts
2026-05-04 13:13 29.77192 121.09507 16838 ft 394 kts 13°
2026-05-04 13:13 29.79759 121.10725 16827 ft 400 kts 24°
2026-05-04 13:13 29.82112 121.12492 16827 ft 404 kts 35°
2026-05-04 13:14 29.84131 121.14726 16820 ft 408 kts 46°
2026-05-04 13:14 29.85792 121.17436 16815 ft 412 kts 58°
2026-05-04 13:14 29.86971 121.20451 16811 ft 417 kts 69°
2026-05-04 13:14 29.87808 121.23609 16806 ft 415 kts 68°
2026-05-04 13:15 29.88967 121.26656 16812 ft 415 kts 59°
2026-05-04 13:15 29.90514 121.29457 16826 ft 411 kts 50°
2026-05-04 13:15 29.92392 121.31937 16830 ft 409 kts 41°
2026-05-04 13:15 29.94482 121.34132 16800 ft 405 kts 36°
2026-05-04 13:16 29.96699 121.36163 16798 ft 405 kts 33°
2026-05-04 13:16 29.98996 121.38068 16793 ft 404 kts 31°
2026-05-04 13:16 30.01353 121.39882 16813 ft 403 kts 29°
2026-05-04 13:16 30.03724 121.41588 16856 ft 403 kts 27°
2026-05-04 13:17 30.06156 121.43222 16847 ft 404 kts 25°
2026-05-04 13:17 30.08616 121.44806 16819 ft 401 kts 25°
2026-05-04 13:17 30.10251 121.45879 16811 ft 402 kts 26°
2026-05-04 13:17 30.12730 121.47513 16821 ft 402 kts 26°
2026-05-04 13:18 30.15112 121.49084 16814 ft 401 kts 26°
2026-05-04 13:18 30.17580 121.50712 16811 ft 400 kts 26°
2026-05-04 13:18 30.20005 121.52312 16814 ft 401 kts 26°
2026-05-04 13:18 30.22397 121.53893 16808 ft 400 kts 26°
2026-05-04 13:19 30.24828 121.55499 16817 ft 400 kts 26°
2026-05-04 13:19 30.26448 121.56564 16811 ft 400 kts 25°
2026-05-04 13:19 30.29621 121.58617 16386 ft 390 kts 25°
2026-05-04 13:19 30.32013 121.60161 15703 ft 392 kts 26°
2026-05-04 13:20 30.34384 121.61694 15179 ft 389 kts 26°
2026-05-04 13:20 30.36738 121.63218 14761 ft 383 kts 26°
2026-05-04 13:20 30.38998 121.64758 14312 ft 380 kts 28°
2026-05-04 13:20 30.41278 121.66371 13813 ft 376 kts 29°
2026-05-04 13:21 30.43480 121.67928 13324 ft 373 kts 29°
2026-05-04 13:21 30.45678 121.69481 13100 ft 361 kts 29°
2026-05-04 13:21 30.47763 121.70954 13007 ft 347 kts 29°
2026-05-04 13:21 30.49785 121.72381 12961 ft 332 kts 28°
2026-05-04 13:22 30.51730 121.73753 12931 ft 316 kts 28°
2026-05-04 13:22 30.53573 121.75052 12915 ft 302 kts 28°
2026-05-04 13:22 30.55311 121.76276 12851 ft 290 kts 28°
2026-05-04 13:22 30.57068 121.77391 12550 ft 283 kts 17°
2026-05-04 13:23 30.58951 121.78030 12191 ft 281 kts 11°
2026-05-04 13:23 30.60835 121.78539 11891 ft 278 kts 10°
2026-05-04 13:23 30.62723 121.79044 11576 ft 276 kts 11°
2026-05-04 13:23 30.64583 121.79545 11256 ft 274 kts 11°
2026-05-04 13:24 30.66442 121.80049 10963 ft 271 kts 11°
2026-05-04 13:24 30.68278 121.80548 10643 ft 269 kts 11°
2026-05-04 13:24 30.70108 121.81046 10318 ft 268 kts 11°
2026-05-04 13:25 30.73693 121.82022 9829 ft 260 kts 11°
2026-05-04 13:25 30.75477 121.82507 9810 ft 263 kts 11°
2026-05-04 13:25 30.77255 121.82991 9812 ft 263 kts 11°
2026-05-04 13:25 30.79040 121.83478 9814 ft 263 kts 11°
2026-05-04 13:26 30.80835 121.83967 9813 ft 263 kts 11°
2026-05-04 13:26 30.82608 121.84450 9807 ft 262 kts 11°
2026-05-04 13:26 30.84393 121.84937 9805 ft 262 kts 11°
2026-05-04 13:26 30.86193 121.85429 9811 ft 263 kts 11°
2026-05-04 13:27 30.87992 121.85919 9806 ft 262 kts 11°
2026-05-04 13:27 30.89759 121.86402 9806 ft 262 kts 11°
2026-05-04 13:27 30.91533 121.86852 9534 ft 258 kts
2026-05-04 13:27 30.93312 121.86633 8989 ft 262 kts 339°
2026-05-04 13:28 30.94873 121.85551 8659 ft 259 kts 323°
2026-05-04 13:28 30.96253 121.84239 8404 ft 256 kts 320°
2026-05-04 13:28 30.97613 121.82881 8082 ft 255 kts 320°
2026-05-04 13:28 30.98954 121.81535 7727 ft 255 kts 320°
2026-05-04 13:29 31.00297 121.80185 7434 ft 253 kts 320°
2026-05-04 13:29 31.01622 121.78855 7135 ft 251 kts 320°
2026-05-04 13:29 31.02950 121.77522 6802 ft 251 kts 320°
2026-05-04 13:29 31.04272 121.76168 6577 ft 249 kts 319°
2026-05-04 13:30 31.05565 121.74832 6446 ft 250 kts 319°
2026-05-04 13:30 31.06870 121.73486 6331 ft 249 kts 319°
2026-05-04 13:30 31.08165 121.72151 6224 ft 250 kts 319°
2026-05-04 13:30 31.09486 121.70790 6107 ft 249 kts 319°
2026-05-04 13:31 31.10781 121.69455 6005 ft 249 kts 318°
2026-05-04 13:31 31.12085 121.68111 5901 ft 249 kts 319°
2026-05-04 13:31 31.13547 121.67029 5766 ft 250 kts 338°
2026-05-04 13:31 31.15212 121.66359 5665 ft 251 kts 341°
2026-05-04 13:32 31.16891 121.65753 5554 ft 251 kts 342°
2026-05-04 13:32 31.18554 121.65156 5447 ft 252 kts 342°
2026-05-04 13:32 31.20235 121.64548 5325 ft 252 kts 342°
2026-05-04 13:32 31.21930 121.63935 5219 ft 252 kts 341°
2026-05-04 13:33 31.23613 121.63326 5101 ft 253 kts 342°
2026-05-04 13:33 31.25309 121.62711 4991 ft 253 kts 342°
2026-05-04 13:33 31.26993 121.62080 4882 ft 252 kts 341°
2026-05-04 13:33 31.28668 121.61437 4768 ft 252 kts 341°
2026-05-04 13:34 31.30335 121.60801 4661 ft 252 kts 341°
2026-05-04 13:34 31.32002 121.60166 4560 ft 253 kts 341°
2026-05-04 13:34 31.33686 121.59526 4413 ft 252 kts 341°
2026-05-04 13:34 31.35355 121.58890 4322 ft 247 kts 341°
2026-05-04 13:35 31.36956 121.58348 4302 ft 235 kts 352°
2026-05-04 13:35 31.39842 121.59635 4577 ft 228 kts 47°
2026-05-04 13:35 31.40660 121.61221 4715 ft 232 kts 68°
2026-05-04 13:36 31.41136 121.63042 4600 ft 234 kts 76°
2026-05-04 13:36 31.41494 121.64889 4341 ft 234 kts 78°
2026-05-04 13:36 31.41506 121.66809 3865 ft 241 kts 106°
2026-05-04 13:36 31.40753 121.68559 3415 ft 243 kts 133°
2026-05-04 13:37 31.39377 121.69603 3248 ft 230 kts 163°